This is the latest recevied weather packets stored in our database for station/object SP2FH-13. If no packets are shown the sender has not sent any weather packets the latest 10 day(s).
| Time | Temp. | Humidity | Pressure | Rain* | Wind** | Luminosity | Snow |
|---|---|---|---|---|---|---|---|
| 1778001367 | 16.11° C | 59% | 996.6 hPa | - | - | 38 W/m² | - |
| 1778001067 | 16.11° C | 59% | 996.5 hPa | - | - | 37 W/m² | - |
| 1778000766 | 16.67° C | 59% | 996.4 hPa | - | - | 41 W/m² | - |
| 1777998958 | 17.78° C | 61% | 996.3 hPa | - | - | 69 W/m² | - |
| 1777998657 | 17.78° C | 62% | 996.2 hPa | - | - | 66 W/m² | - |
| 1777998356 | 17.78° C | 63% | 996.3 hPa | - | - | 65 W/m² | - |
| 1777998055 | 18.33° C | 64% | 996.3 hPa | - | - | 67 W/m² | - |
| 1777997754 | 18.33° C | 64% | 996.3 hPa | - | - | 75 W/m² | - |
| 1777997453 | 18.33° C | 64% | 996.3 hPa | - | - | 77 W/m² | - |
| 1777996550 | 18.89° C | 64% | 996.3 hPa | - | - | 94 W/m² | - |
| 1777995346 | 20° C | 63% | 996.3 hPa | - | - | 144 W/m² | - |
| 1777994743 | 20° C | 62% | 996.2 hPa | - | - | 228 W/m² | - |
| 1777994141 | 21.11° C | 61% | 996.2 hPa | - | - | 262 W/m² | - |
| 1777993538 | 20.56° C | 62% | 996.2 hPa | - | - | 217 W/m² | - |
| 1777991732 | 20.56° C | 63% | 996.4 hPa | - | - | 242 W/m² | - |
| 1777991129 | 20° C | 64% | 996.5 hPa | - | - | 322 W/m² | - |
| 1777990828 | 20° C | 65% | 996.5 hPa | - | - | 229 W/m² | - |
| 1777990527 | 20° C | 65% | 996.5 hPa | - | - | 242 W/m² | - |
| 1777990225 | 20° C | 66% | 996.5 hPa | - | - | 233 W/m² | - |
| 1777989924 | 20° C | 65% | 996.6 hPa | - | - | 216 W/m² | - |
| 1777989322 | 20.56° C | 65% | 996.6 hPa | - | - | 196 W/m² | - |
| 1777988418 | 21.67° C | 62% | 996.6 hPa | - | - | 421 W/m² | - |
| 1777988117 | 22.22° C | 60% | 996.6 hPa | - | - | 249 W/m² | - |
| 1777987815 | 22.78° C | 54% | 996.8 hPa | - | - | 238 W/m² | - |
| 1777987514 | 22.78° C | 50% | 996.8 hPa | - | - | 285 W/m² | - |
* Rain since midnight (hover to see other rain measurements)
** Current wind speed in m/s (hover to see current wind gust speed)